Regional Weather Roundup
Issued by NWS Goodland, KS

Home | Current Version | Previous Version | Text Only | Print | Product List | Glossary On
Versions: 1 2 3 4 5 6 7 8 9 10 11 12 13 14 15 16 17 18 19 20 21 22 23 24 25 26 27 28 29 30 31 32 33 34 35 36 37 38 39 40 41 42 43 44 45 46 47 48 49 50
000
ASUS43 KGLD 250908
RWRGLD

GOODLAND FORECAST AREA HOURLY WEATHER ROUNDUP
NATIONAL WEATHER SERVICE GOODLAND KS
200 AM MST THU DEC 25 2014

...OFFICIAL OBSERVATIONS...

CITY           SKY/WX    TMP DP  RH WIND       PRES   REMARKS
GOODLAND KS    CLOUDY    35  21  56 S9        29.44F
HILL CITY KS   CLOUDY    33  19  56 S8        29.53F
IMPERIAL NEB   CLOUDY    25  20  81 E3        29.45F
MCCOOK NEB     CLOUDY    32  21  64 SE3       29.46F
AKRON CO       CLOUDY    29  22  75 W12       29.42S WCI  19
BURLINGTON CO  CLOUDY    35  23  61 SW5       29.43F
LIMON CO       CLOUDY    23  21  92 CALM      29.45S
$$

...UNOFFICIAL OBSERVATIONS...

CITY           SKY/WX    TMP DP  RH WIND       PRES   REMARKS
COLBY KS       CLEAR     34  25  69 SE8       29.47S
GOVE KS          N/A     29  32 100 MISG        N/A
NORTON KS      CLEAR     34  16  47 SE8       29.50F
SHARON SPRINGS   N/A     33  21  62 S6          N/A
TRIBUNE KS     CLOUDY    30  25  80 W6        29.48F
KIT CARSON CO    N/A     27  21  77 MISG        N/A
YUMA CO          N/A     29  22  75 CALM        N/A
$$


USA.gov is the U.S. government's official web portal to all federal, state and local government web resources and services.